Simultaneous Nadir Overpasses (SNOs) Predictions

Prediction of SNOs between GOES-17 and METOP-C Satellite Orbit:

Table of predicted SNOs for the next 14.0 days since TLE Epoch: 8/2/2019
Index Date Time (GOES-17) GOES-17 Lat,Lon METOP-C Lat,Lon Distance(km) Time Diff (sec)
1 08/03/2019 18:26:39 -0.01,-137.21 -0.63,-134.38 322.45 80
2 08/05/2019 06:48:19 0.00,-137.20 -0.39,-138.97 201.73 80
3 08/06/2019 06:24:59 0.01,-137.20 0.71,-133.97 366.95 80
4 08/07/2019 18:46:32 -0.00,-137.19 0.28,-138.54 153.07 80
5 08/08/2019 18:23:12 -0.01,-137.19 -0.82,-133.55 415.36 80
6 08/10/2019 06:44:53 -0.00,-137.17 -0.21,-138.14 109.82 80
7 08/11/2019 06:21:33 0.00,-137.16 0.90,-133.14 458.10 80
8 08/12/2019 18:43:04 0.00,-137.15 0.14,-137.70 63.00 80
9 08/15/2019 06:41:26 -0.00,-137.12 -0.02,-137.31 21.51 80




NCC Satellite Simultaneous Nadir Overpasses (SNOs) Prediction Service
